User: anonymous   Login
Location: ??
(35.5052°N, 139.7262°E)
Time: 11:21:15
(UTC+00:00)
Language:

IDEFIX/ARIANE 42P - Orbit

View from above orbital plane
View from above orbital plane
View from above satellite
View from above satellite

Ground track
Ground track

The orbit data is extracted from the following two-line orbital elements,

1 27422U 02021B   21263.10238105  .00000004  00000-0  18175-4 0  9996
2 27422  98.4107 212.7722 0011488 318.9888  41.0429 14.29331044  8939
Epoch (UTC): 20 September 2021 02:27:25
Eccentricity: 0.0011488
inclination: 98.4107°
perigee height: 786 km
apogee height: 802 km
right ascension of ascending node: 212.7722°
argument of perigee: 318.9888°
revolutions per day: 14.29331044
mean anomaly at epoch: 41.0429°
orbit number at epoch: 893

The dashed part of the orbit path shows where the satellite is in the earth's shadow,  

DLR